LIPQ

Trieste – Friuli Venezia Giulia Airport

Airport
ICAO code
LIPQ
IATA Code
TRS
Summary
ICAO Region
EUR
ICAO Territory
Location

Ronchi dei Legionari, Friuli-Venezia Giulia

Serving
Trieste
Elevation
39 ft
Coordinates
45° 49' 34" N , 13° 28' 24" E
KCC
Metar
LIPQ 200550Z AUTO 11006KT 060V130 9999 -RA OVC086/// 23/20 Q1010

Trieste – Friuli Venezia Giulia Airport is an international airport located 0.3 NM west of Ronchi dei Legionari, near Trieste in Venezia Giulia, north-eastern Italy.

Climatology

Humid subtropical climate (Köppen climate classification Cfa)

Runways

Designator Length Width Surface Rops
9/27 3000 45 ASP Yes/Yes

Airport map

Aerial View

SKYbrary Partners:

Safety knowledge contributed by: